Location: Eaux-Bonnes
(42.9667°N, 0.3833°W)
Time: 23:00:18
(UTC+00:00)

Daily predictions for brighter satellites

Satellite Brightness Start Highest point End
(mag) Time Altitude Azimuth Time Altitude Azimuth Time Altitude Azimuth
Cosmos 468 Rocket 4.0 16:50:09 10° SSW 16:55:17 83° ESE 17:00:32 10° NNE
Meteor 1-25 Rocket 4.3 16:51:01 10° N 16:56:30 55° ENE 17:02:00 10° SSE
Cosmos 1500 Rocket 3.5 16:53:24 10° N 16:57:50 68° E 17:02:12 10° SSE
ADEOS 4.4 16:57:12 10° S 17:02:20 57° WSW 17:07:29 10° NNW
Cosmos 2221 3.6 16:58:42 10° SSW 17:02:49 47° WNW 17:07:00 10° N
Cosmos 1898 Rocket 3.5 16:57:51 10° NNW 17:03:06 70° ENE 17:08:17 10° SSE
USA 276 3.1 17:00:14 10° WNW 17:03:15 48° SW 17:06:17 10° SE
CZ-2C R/B 3.9 17:02:44 10° SSE 17:03:33 10° SSE 17:04:22 10° SE
Cosmos 1939 Rocket 3.1 16:59:49 10° SSE 17:03:48 51° ENE 17:07:46 10° N
Cosmos 1602 4.0 17:01:10 10° N 17:04:53 44° ENE 17:08:36 10° SSE
Sich 1 3.6 17:01:03 10° N 17:05:02 36° ENE 17:09:00 10° SE
ARGOS 4.4 17:02:05 10° ESE 17:05:51 20° ENE 17:09:37 10° NNE
Nadezhda 4 Rocket 4.2 17:00:42 10° N 17:07:03 82° W 17:13:22 10° S
Cosmos 2084 3.8 17:02:46 10° NW 17:07:05 75° SW 17:11:35 10° SSE
Cosmos 1805 Rocket 3.7 17:05:30 10° N 17:09:45 52° E 17:13:58 10° SSE
Cosmos 1833 Rocket 2.8 17:04:09 10° SSW 17:09:46 84° WNW 17:15:27 10° NNE
COSMOS 2406 3.2 17:07:56 10° SSW 17:13:41 82° ESE 17:19:27 10° NNE
CZ-2C R/B 3.4 17:15:23 10° S 17:20:15 63° W 17:25:00 10° NNW
Cosmos 1782 2.9 17:17:44 10° S 17:21:39 57° E 17:25:35 10° NNE
USA 267 3.5 17:16:58 10° NE 17:23:29 70° NW 17:29:57 10° WSW
Cosmos 1092 Rocket 4.0 17:17:43 10° N 17:24:08 81° E 17:30:26 10° S
Cosmos 1428 Rocket 4.4 17:18:42 10° N 17:24:50 71° E 17:30:59 10° SSE
Cosmos 1763 Rocket 4.3 17:21:53 10° SW 17:26:47 49° WNW 17:31:46 10° N
CZ-2C R/B 3.3 17:23:36 10° NNE 17:28:11 31° E 17:32:45 10° SSE
CZ-2D R/B 3.5 17:24:37 10° SE 17:28:15 43° ENE 17:31:54 10° N
Cosmos 1500 3.2 17:25:56 10° N 17:29:37 55° E 17:33:15 10° SSE
CZ-4C R/B 3.2 17:23:58 10° NNW 17:30:58 50° NE 17:39:05 10° ESE
H-2A R/B 2.2 17:26:33 10° SE 17:31:30 48° ENE 17:36:20 10° N
CZ-4B R/B 3.6 17:28:02 10° SE 17:33:00 39° ENE 17:37:55 10° N
Cosmos 841 Rocket 3.4 17:28:57 10° SSW 17:34:06 84° ESE 17:39:17 10° NNE
PAYLOAD B 4.3 17:29:17 10° SSE 17:34:45 59° ENE 17:40:15 10° N
SMAP 3.4 17:36:26 10° S 17:41:04 70° WSW 17:45:43 10° NNW
Cosmos 1937 Rocket 3.8 17:36:06 10° NNW 17:41:26 75° WSW 17:46:43 10° SSE
USA 229 DEB 4.5 17:34:47 10° NW 17:42:07 65° WSW 17:49:51 10° SSE
USA 229 4.4 17:34:52 10° NW 17:42:13 65° WSW 17:49:57 10° SSE
Cosmos 2142 Rocket 4.5 17:37:18 10° S 17:43:19 61° E 17:49:27 10° NNE
Lacrosse 5 rocket 2.5 17:40:38 10° NNW 17:43:51 23° NNE 17:44:49 21° NE
Cosmos 921 Rocket 4.0 17:40:53 10° SSE 17:44:20 25° E 17:45:21 23° ENE
AQUARIUS 4.4 17:40:49 10° S 17:45:17 74° WSW 17:49:48 10° NNW
COSMO-SKYMED 1 3.0 17:41:39 11° NNE 17:45:31 40° E 17:49:36 10° S
COSMOS 2455 3.0 17:40:26 10° SW 17:46:27 78° WNW 17:52:28 10° NNE
Cosmos 2279 Rocket 4.0 17:42:37 10° S 17:48:44 64° E 17:54:52 10° NNE
Meteor 2-21 4.5 17:43:07 10° N 17:49:13 86° W 17:55:15 10° S
Cosmos 372 Rocket 3.9 17:44:06 10° NNW 17:49:22 82° ENE 17:54:37 10° SSE
ISS -3.8 17:48:13 10° NW 17:51:37 62° NNE 17:53:03 30° E
Cosmos 1633 Rocket 3.1 17:47:52 10° N 17:52:10 52° E 17:56:26 10° SSE
Cosmos 2360 Rocket 3.9 17:50:08 10° NNE 17:52:12 14° NNE 17:52:12 14° NNE
Cosmos 44 Rocket 3.9 17:49:40 10° NNW 17:54:11 35° NE 17:56:04 25° E
Cosmos 2266 Rocket 4.5 17:49:04 10° N 17:54:57 37° ENE 18:00:48 10° SE
USA 234 3.2 17:49:26 10° SE 17:56:01 86° NE 18:02:34 10° NW
SL-24 R/B - RUBIN 2 3.5 17:53:27 10° NW 17:57:56 84° WSW 18:02:14 10° SSE
Meteor 1-11 Rocket 4.4 17:53:41 10° N 17:58:39 31° ENE 18:03:40 10° SE
Cosmos 1666 2.5 17:55:11 10° N 17:58:54 68° E 18:02:35 10° SSE
Cosmos 1151 Rocket 2.9 17:55:24 10° S 17:59:42 82° E 18:04:05 10° N
PSLV R/B 4.1 17:56:43 10° S 18:00:22 64° WSW 18:04:05 10° NNW
CZ-4 R/B 4.5 18:01:55 10° SSE 18:05:54 52° ENE 18:09:57 10° N
USA 305 4.3 18:05:02 10° NW 18:08:24 22° NNE 18:08:40 22° NNE
Cosmos 1900 4.2 18:04:31 10° SSW 18:09:21 75° ESE 18:11:48 30° NE
SKYMED 3 4.4 18:06:03 15° NNE 18:09:41 76° ESE 18:14:01 10° S
X-37B 2.6 18:08:40 10° S 18:10:00 16° SSE 18:10:00 16° SSE
Okean O Rocket 1.5 18:07:20 10° SSE 18:11:44 65° ENE 18:16:10 10° N
Meteor 2-15 4.4 18:07:27 10° S 18:13:26 61° E 18:19:27 10° NNE
Cosmos 2322 Rocket 3.1 18:09:22 10° N 18:13:54 29° NE 18:13:54 29° NE
Cosmos 1697 Rocket 4.5 18:09:42 10° NW 18:14:39 33° WSW 18:19:35 10° SSW
Landsat 5 3.3 18:16:56 43° NE 18:18:05 64° ESE 18:21:59 10° S
Cosmos 1666 Rocket 4.0 18:14:31 10° NNW 18:18:56 64° W 18:23:15 10° S
Cosmos 1980 Rocket 2.7 18:14:09 10° NNW 18:19:43 60° WSW 18:25:13 10° S
Cosmos 1812 3.7 18:16:17 10° SSW 18:20:00 46° WNW 18:23:44 10° N
Cosmos 1328 Rocket 3.5 18:15:58 10° S 18:20:25 84° W 18:24:02 15° N
SJ-11-01 4.2 18:16:52 10° SSE 18:21:38 85° ENE 18:26:24 10° NNW
Cosmos 1470 Rocket 3.5 18:17:51 10° N 18:22:18 65° E 18:26:44 10° SSE
APEX 3.8 18:19:01 10° S 18:22:09 40° SSE 18:22:09 40° SSE
SL-16 R/B 2.3 18:27:24 10° NNW 18:32:56 50° ENE 18:33:21 49° ENE
SKYMED 2 4.0 18:30:16 16° N 18:33:37 59° WNW 18:37:52 10° SSW
Cosmos 2082 Rocket 3.4 18:28:42 10° SW 18:34:01 40° WNW 18:38:46 13° N
ATLAS CENTAUR R/B 3.8 18:29:00 10° W 18:35:50 28° NW 18:37:45 21° N
Cosmos 2298 Rocket 3.9 18:31:08 10° NNW 18:36:28 70° ENE 18:38:49 34° SE
Cosmos 1655 Rocket 3.9 18:30:11 10° N 18:36:37 79° E 18:42:58 10° S
CZ-2C R/B 3.0 18:39:03 10° SW 18:42:01 22° S 18:42:01 22° S
DMSP B5D2-2 4.0 18:42:37 59° ESE 18:42:37 59° ESE 18:47:32 10° S
ARGOS 3.6 18:40:16 10° S 18:45:37 62° W 18:51:00 10° NNW
Cosmos 2333 Rocket 4.3 18:42:03 10° N 18:42:43 12° N 18:42:43 12° N
Cosmos 1818 3.5 18:42:38 10° NW 18:48:08 88° WSW 18:49:43 48° SSE
NOAA 15 4.4 18:43:24 10° SSE 18:48:40 78° ENE 18:53:57 10° N
GEOS 3 Rocket 4.0 18:54:52 48° N 18:54:52 48° N 18:58:56 10° NNW
Cosmos 836 Rocket 4.5 18:50:13 10° SSW 18:54:59 69° SSE 18:54:59 69° SSE
Meteor 1-27 Rocket 3.5 18:56:21 10° S 19:01:42 84° SSE 19:01:42 84° SSE
Cosmos 1515 Rocket 4.2 18:59:36 10° SSW 19:03:57 53° W 19:04:04 52° WNW
SL-08 RB Rocket 4.5 19:00:16 10° S 19:04:46 51° W 19:09:17 10° NNW
USA 267 4.4 19:03:55 27° NNE 19:05:50 32° NNW 19:11:27 10° WNW
CZ-2C R/B 4.1 19:03:51 10° N 19:08:27 33° WNW 19:13:02 10° SW
Cosmos 1867 4.1 19:04:47 10° SSW 19:08:41 48° S 19:08:41 48° S
H-2A R/B 4.5 19:07:17 10° SW 19:11:09 21° W 19:14:56 10° NW
Cosmos 2150 Rocket 4.4 19:08:12 10° NNW 19:13:19 60° WSW 19:13:51 57° SW
CZ-4C R/B 3.9 19:12:34 10° NW 19:19:44 47° WSW 19:27:48 10° S
Lacrosse 5 rocket 3.7 19:19:14 10° NW 19:20:27 19° NW 19:20:27 19° NW
ISS -0.3 19:25:43 10° W 19:26:04 12° W 19:26:04 12° W
Cosmos 1125 Rocket 4.4 19:23:12 10° NNW 19:27:55 47° W 19:27:55 47° W
Cosmos 2360 Rocket 4.1 19:32:25 10° NNW 19:33:59 19° NNW 19:33:59 19° NNW
Cosmos 2322 Rocket 3.9 19:53:06 10° NW 19:55:46 27° NW 19:55:46 27° NW
SL-16 R/B 4.3 20:12:12 10° NW 20:15:18 22° W 20:15:18 22° W
